This demonstration page uses our WeatherBlox Daily Observations layout. Learn more.

Left ArrowRight Arrow

Hourly Observations for August 6, 2021

Temp ( °F °C ) Dew Point ( °F °C ) Humidity (%) Winds ( mph kmh ) Pressure ( in mb ) Visibility ( mi km ) Precip ( " mm )
12:15 am 00:15 Clear 70 21 62 16.5 76 76 SSE 7 11 29.87 1011 10 16 N/A
12:35 am 00:35 Clear 70 21 61 16.1 74 74 S 7 11 29.87 1011 10 16 N/A
12:55 am 00:55 Clear 69 20.7 61 15.9 74 74 S 7 11 29.86 1011 10 16 N/A
1:15 am 01:15 Clear 71 21.4 60 15.6 70 70 S 9 15 29.85 1011 10 16 N/A
1:35 am 01:35 Clear 71 21.8 60 15.3 67 67 S 9 15 29.84 1011 10 16 N/A
1:55 am 01:55 Clear 71 21.8 59 15.1 66 66 S 7 11 29.84 1011 10 16 N/A
2:15 am 02:15 Clear 71 21.5 59 15.2 67 67 S 10 17 29.84 1010 10 16 N/A
2:35 am 02:35 Clear 71 21.7 59 14.8 65 65 S 12 19 29.82 1010 10 16 N/A
2:55 am 02:55 Clear 71 21.8 58 14.2 62 62 SSW 9 15 29.82 1010 10 16 N/A
3:15 am 03:15 Clear 70 21.3 57 14.1 64 64 SSW 12 19 29.83 1010 10 16 N/A
3:35 am 03:35 Clear 69 20.7 57 14 66 66 SW 8 13 29.83 1010 10 16 N/A
3:55 am 03:55 Clear 68 20.1 57 14 68 68 SSW 8 13 29.84 1010 10 16 N/A
4:15 am 04:15 Clear 68 19.8 57 14 69 69 SW 8 13 29.84 1010 10 16 N/A
4:35 am 04:35 Clear 67 19.4 57 14 71 71 SW 8 13 29.84 1011 10 16 N/A
4:55 am 04:55 Clear 66 19 57 14 73 73 SW 8 13 29.85 1011 10 16 N/A
5:15 am 05:15 Clear 67 19.4 57 13.8 70 70 SW 9 15 29.83 1010 10 16 N/A
5:35 am 05:35 Clear 66 19 57 13.8 72 72 SW 7 11 29.85 1011 10 16 N/A
5:55 am 05:55 Clear 66 18.9 57 13.8 72 72 SW 6 9 29.85 1011 10 16 N/A
6:15 am 06:15 Clear 65 18.6 57 13.7 73 73 N N/A 29.86 1011 10 16 N/A
6:35 am 06:35 Clear 63 17 57 14 83 83 N N/A 29.87 1012 10 16 N/A
6:55 am 06:55 Sunny 64 17.9 57 14 78 78 N N/A 29.86 1011 10 16 N/A
7:15 am 07:15 Sunny 65 18.3 58 14.3 78 78 SE 8 13 29.86 1011 10 16 N/A
7:35 am 07:35 Sunny 63 17.3 59 14.8 85 85 S 3 6 29.87 1012 10 16 N/A
7:55 am 07:55 Sunny 65 18.4 59 15.1 81 81 N N/A 29.86 1011 10 16 N/A
8:15 am 08:15 Sunny 66 18.7 60 15.5 82 82 ESE 7 11 29.89 1012 10 16 N/A
8:35 am 08:35 Sunny 68 20 61 16.1 78 78 ESE 6 9 29.88 1012 10 16 N/A
8:55 am 08:55 Sunny 69 20.8 62 16.7 77 77 SE 7 11 29.87 1012 10 16 N/A
9:15 am 09:15 Sunny 71 21.5 63 17.4 78 78 ESE 9 15 29.87 1011 10 16 N/A
9:35 am 09:35 Sunny 72 22.1 64 17.9 77 77 SE 9 15 29.86 1011 10 16 N/A
9:55 am 09:55 Sunny 74 23.1 64 17.6 71 71 SSE 9 15 29.85 1011 10 16 N/A
10:15 am 10:15 Sunny 74 23.6 65 18.1 71 71 SE 9 15 29.84 1010 10 16 N/A
10:35 am 10:35 Sunny 76 24.4 64 18 68 68 SSE 9 15 29.83 1010 10 16 N/A
10:55 am 10:55 Sunny 77 24.8 65 18.5 68 68 SE 12 19 29.82 1010 10 16 N/A
11:15 am 11:15 Sunny 78 25.8 64 17.5 60 60 SSE 9 15 29.81 1009 10 16 N/A
11:35 am 11:35 Sunny 80 26.6 65 18.2 60 60 SSE 12 19 29.80 1009 10 16 N/A
11:55 am 11:55 Sunny 81 27.1 65 18.2 58 58 SSE 12 19 29.81 1009 10 16 N/A
12:15 pm 12:15 Sunny 82 27.6 66 18.7 58 58 SSE 10 17 29.80 1009 10 16 N/A
12:35 pm 12:35 Sunny 83 28.1 66 18.9 57 57 S 13 20 29.79 1009 10 16 N/A
12:55 pm 12:55 Sunny 84 29 66 18.8 54 54 SSE 10 17 29.78 1008 10 16 N/A
1:15 pm 13:15 Sunny 85 29.7 67 19.4 54 54 SSE 10 17 29.76 1008 10 16 N/A
1:35 pm 13:35 Sunny 87 30.5 66 18.7 49 49 S 15 24 29.74 1007 10 16 N/A
1:55 pm 13:55 Sunny 88 31.1 65 18.6 47 47 S 12 19 29.74 1007 10 16 N/A
2:15 pm 14:15 Sunny 89 31.5 65 18.3 45 45 SSE 15 24 29.73 1007 10 16 N/A
2:35 pm 14:35 Sunny 89 31.8 64 18 44 44 SSE 12 19 29.72 1007 10 16 N/A
2:55 pm 14:55 Sunny 90 32 65 18.1 44 44 SSE 14 22 29.71 1006 10 16 N/A
3:15 pm 15:15 Sunny 90 32.4 66 19.1 45 45 SSE 13 20 29.69 1005 10 16 N/A
3:35 pm 15:35 Sunny 91 33 63 17.3 39 39 SSE 12 19 29.69 1005 10 16 N/A
3:55 pm 15:55 Sunny 91 32.9 65 18.1 41 41 SSE 12 19 29.68 1005 10 16 N/A
4:15 pm 16:15 Sunny 91 33 64 17.7 40 40 SSE 13 20 29.67 1005 10 16 N/A
4:35 pm 16:35 Sunny 91 33 62 16.9 38 38 SSE 12 19 29.67 1005 10 16 N/A
4:55 pm 16:55 Sunny 91 32.9 63 17.4 40 40 S 10 17 29.66 1004 10 16 N/A
5:15 pm 17:15 Sunny 91 32.7 63 17.4 40 40 S 9 15 29.66 1004 10 16 N/A
5:35 pm 17:35 Sunny 91 32.5 64 17.6 41 41 SSE 8 13 29.65 1004 10 16 N/A
5:55 pm 17:55 Sunny 90 32.2 65 18.1 43 43 SSE 8 13 29.65 1004 10 16 N/A
6:15 pm 18:15 Sunny 89 31.8 64 17.7 43 43 SSE 10 17 29.64 1004 10 16 N/A
6:35 pm 18:35 Sunny 89 31.5 64 17.5 43 43 SSE 8 13 29.65 1004 10 16 N/A
6:55 pm 18:55 Sunny 87 30.8 64 17.5 45 45 SSE 8 13 29.65 1004 10 16 N/A
7:15 pm 19:15 Sunny 86 29.8 64 17.9 49 49 SSE 7 11 29.65 1004 10 16 N/A
7:35 pm 19:35 Sunny 84 29.1 63 17.2 49 49 SSE 9 15 29.66 1004 10 16 N/A
7:55 pm 19:55 Sunny 82 27.7 62 16.7 51 51 SSE 8 13 29.67 1005 10 16 N/A
8:15 pm 20:15 Sunny 80 26.8 62 16.7 54 54 SSE 8 13 29.67 1005 10 16 N/A
8:35 pm 20:35 Sunny 80 26.5 61 16.2 53 53 SSE 8 13 29.69 1005 10 16 N/A
8:55 pm 20:55 Clear 78 25.6 62 16.4 57 57 SSE 8 13 29.69 1006 10 16 N/A
9:15 pm 21:15 Clear 78 25.7 61 16.2 56 56 SSE 8 13 29.68 1005 10 16 N/A
9:35 pm 21:35 Clear 78 25.6 61 16.2 56 56 SSE 9 15 29.69 1006 10 16 N/A
9:55 pm 21:55 Clear 78 25.8 61 16.2 55 55 SSE 10 17 29.68 1005 10 16 N/A
10:15 pm 22:15 Clear 78 25.7 61 16.2 56 56 SSE 8 13 29.70 1006 10 16 N/A
10:35 pm 22:35 Clear 78 25.8 61 16.1 55 55 SSE 9 15 29.71 1006 10 16 N/A
10:55 pm 22:55 Clear 78 25.5 61 16.2 56 56 SSE 8 13 29.71 1006 10 16 N/A
11:15 pm 23:15 Clear 77 25.1 61 16.3 58 58 SSE 6 9 29.73 1007 10 16 N/A
11:35 pm 23:35 Clear 77 24.8 62 16.5 60 60 SSE 6 9 29.74 1007 10 16 N/A
11:55 pm 23:55 Clear with Nearby Thunderstorms 76 24.5 62 16.5 61 61 WSW 3 6 29.77 1008 10 16 N/A

Powered by AerisWeather